www.pogodaiklimat.ru

Погода и климат >> Архив погоды >> Россия >> Чукотка >> Эгвекинот


ПОГОДА в Эгвекиноте

  • Прогноз погоды в Эгвекиноте
  • Монитор погоды в Эгвекиноте
  • Климат города

АРХИВ ПОГОДЫ в Эгвекиноте

Время (UTC), дата Ветер
(напр.,м/с)
 
Видим.   Явления Облачность Т
(С)
Тd
(С)
f
(%)
Тe
(С)
Тes
(С)
Комфортность P
(гПа)
Po
(гПа)
Тmin
(С)
Tmax
(С)
R
(мм)
R24
(мм)
S
(см)
18 10.07 С 3
{8}
20 км 10/10 1500 м
[Sc]
+6.2 -1.0 60 +3 +3 1007.6 1004.8 +5.8
21 10.07 С 4
{7}
20 км в посл. час дождь 10/4 1500 м
[Sc As op]
+7.2 -0.6 58 +4 +5 1007.7 1004.9 +5.8
00 11.07 В 2
{6}
20 км {дождь} 10/5 1000 м
[Cb cap Ac und]
+10.0 -0.2 49 +9 +11 1008.0 1005.3
03 11.07 Ю 4
{6}
20 км 8/3 1000 м
[Sc Ac trans]
+10.5 +1.0 52 +8 +11 1008.2 1005.5
06 11.07 Ю 2
{7}
20 км 5/5 1500 м
[Sc]
+11.4 -0.4 44 +11 +12 1009.1 1006.4 +12.2 0.0
09 11.07 С 3
{9}
20 км 3/3 1500 м
[Sc]
+7.7 -0.6 56 +5 +5 1011.2 1008.4
12 11.07 СВ 4
{8}
20 км ясно +4.6 -1.0 67 +1 +1 1012.7 1009.9
15 11.07 С 2
{5}
20 км ясно +2.5 -1.8 73 -0 -0 1013.8 1011.0
18 11.07 С 5
{7}
20 км 4/0
[Ac trans]
+7.3 -1.9 52 +4 +5 1014.1 1011.3 +2.2
21 11.07 СВ 3
{8}
20 км 4/0
[Ac trans]
+11.0 -2.4 39 +10 +15 1014.8 1012.1 +2.2
00 12.07 Ю 3
{5}
20 км ясно +12.8 -0.9 39 +12 +21 1014.9 1012.2
03 12.07 Ю 2
{4}
20 км ясно +15.4 -1.7 31 +16 +24 1014.1 1011.4
06 12.07 Ю 8-11
{12}
20 км ясно +10.1 +4.4 68 +6 +7 1014.9 1012.2 +16.1
09 12.07 Ю 5
{11}
20 км ясно +8.5 +3.0 68 +5 +5 1016.3 1013.6
12 12.07 Ю 3
{7}
20 км ясно +7.6 +3.2 74 +5 +5 1017.4 1014.7
15 12.07 штиль 0
{5}
20 км ясно +6.0 +1.9 75 +5 +5 1017.5 1014.7
18 12.07 Ю 4
{7}
20 км 10/10 840 м
[Cb cap]
+8.1 +3.9 75 +5 +5 1018.2 1015.4 +5.1
21 12.07 Ю 5
{7}
20 км 10/10 900 м
[Cb cap]
+9.5 +4.7 72 +6 +6 1018.1 1015.3 +5.1
00 13.07 Ю 6
{9}
20 км 9/9 960 м
[Cb cap]
+10.8 +5.0 67 +8 +8 1017.9 1015.1
03 13.07 Ю 9-11
{11}
20 км 10/6 1000 м
[Sc Ci sp]
+11.1 +5.2 67 +7 +8 1017.4 1014.7
06 13.07 Ю 6
{11}
20 км 10/5 1500 м
[Sc Ci sp]
+10.3 +4.0 65 +7 +8 1017.0 1014.3 +11.9
09 13.07 Ю 6
{9}
10 км 10/10 660 м
[Sc]
+8.9 +5.0 77 +5 +5 1017.5 1014.8
12 13.07 Ю 6
{9}
10 км 10/10 720 м
[Cb cap]
+8.5 +4.5 76 +5 +5 1017.5 1014.8
15 13.07 Ю 6
{8}
10 км слабый ливневой дождь 10/10 600 м
[Cb cap]
+7.7 +4.4 80 +4 +4 1016.3 1013.6
18 13.07 ЮВ 7-10
{10}
4000 м слабый ливневой дождь 10/10 600 м
[Cb cap]
+7.9 +5.7 86 +3 +3 1015.2 1012.5 +7.6 0.4
21 13.07 ЮЗ 3
{10}
10 км {ливн. осадки} 10/9 1110 м
[Cb cap As op]
+9.4 +3.6 67 +7 +7 1014.5 1011.8 +7.6
00 14.07 Ю 7
{10}
20 км {ливн. осадки} 10/10 840 м
[Cb cap]
+9.5 +4.8 72 +6 +6 1013.2 1010.5
03 14.07 Ю 7-10
{10}
20 км 10/10 870 м
[Cb cap]
+10.0 +5.7 75 +6 +6 1011.8 1009.1
06 14.07 Ю 8-10
{11}
20 км 10/9 1110 м
[Cb cap Ac und]
+10.4 +7.1 80 +7 +7 1010.7 1008.0 +10.8 0.0
09 14.07 Ю 5
{10}
20 км 10/6 600 м
[Cb cap Ac trans Ci sp]
+10.4 +7.6 83 +7 +7 1010.1 1007.4
12 14.07 Ю 3
{8}
20 км 10/4 600 м
[Sc Ac trans Ci sp]
+9.4 +7.0 85 +7 +7 1009.5 1006.8
15 14.07 С 2
{6}
20 км 10/3 1000 м
[Sc Ac trans Ci sp]
+8.9 +7.1 88 +7 +7 1008.7 1006.0
18 14.07 штиль 0
{3}
20 км 10/0
[Ac trans Ci fib]
+9.9 +7.1 83 +9 +11 1008.5 1005.8 +7.7
21 14.07 СЗ 1
{2}
20 км 9/0
[Ac trans Ci fib]
+11.2 +6.7 74 +11 +17 1008.1 1005.4 +7.7
00 15.07 Ю 5
{7}
20 км 10/0
[Ac trans Ci fib]
+15.0 +7.1 59 +14 +17 1007.4 1004.7
03 15.07 Ю 7
{9}
20 км 10/0
[Ac trans Ci fib]
+13.8 +9.1 73 +12 +13 1006.5 1003.8
06 15.07 Ю 4
{9}
20 км 10/3 1000 м
[Sc Ac trans Ci fib]
+13.0 +9.3 78 +11 +12 1005.8 1003.1 +16.7
09 15.07 штиль 0
{4}
20 км 10/0
[Ac trans Ci fib]
+11.8 +9.2 84 +11 +11 1005.9 1003.2
12 15.07 С 6
{9}
20 км 10/0
[Ac trans Ci fib]
+13.3 +9.0 75 +11 +11 1006.0 1003.3
15 15.07 С 6
{10}
20 км 9/3 1000 м
[Sc Ci fib]
+12.3 +7.1 71 +10 +10 1007.0 1004.3
18 15.07 С 4
{9}
20 км 5/0
[Ac trans]
+14.8 +6.9 59 +14 +15 1007.8 1005.1 +10.9
21 15.07 ЮВ 2
{7}
10 км 10/8 1350 м
[Cb cap Ci sp]
+15.0 +6.8 58 +15 +16 1008.8 1006.1 +10.9
00 16.07 Ю 5
{7}
10 км 10/8 1380 м
[Cb cap Ac und]
+15.7 +5.6 51 +15 +15 1009.6 1006.9
03 16.07 В 3
{6}
20 км 10/6 1500 м
[Cb cap Ac trans Ci fib]
+15.8 +4.1 46 +15 +17 1010.2 1007.5
06 16.07 Ю 7
{10}
20 км 9/5 1500 м
[Sc Ac trans Ci fib]
+13.9 +7.0 63 +12 +12 1010.6 1007.9 +16.8
09 16.07 Ю 5
{9}
10 км 10/8 800 м
[Cb cap Ac und]
+11.7 +9.6 87 +9 +9 1011.5 1008.8
12 16.07 ЮЗ 3
{6}
10 км 10/8 600 м
[Cb cap Ac und]
+12.0 +8.3 78 +10 +10 1011.2 1008.5
15 16.07 Ю 4
{6}
10 км 10/8 600 м
[Cb cap Ac und]
+11.5 +6.4 71 +9 +9 1010.8 1008.1
18 16.07 штиль 0
{5}
10 км 10/10 570 м
[Cb cap]
+11.1 +6.5 73 +11 +11 1010.5 1007.8 +10.9
21 16.07 ЮВ 1
{3}
10 км в посл. час ливневой дождь 10/10 700 м
[Cb cap]
+11.6 +7.1 74 +12 +12 1010.9 1008.2 +10.9
00 17.07 С 2
{3}
10 км слабый ливневой дождь 10/10 600 м
[Cb cap]
+12.3 +8.0 75 +11 +11 1011.0 1008.3
03 17.07 Ю 2
{4}
10 км в посл. час ливневой дождь 10/10 700 м
[Cb cap]
+12.0 +8.3 78 +11 +11 1010.8 1008.1
06 17.07 СВ 1
{3}
10 км {ливн. осадки} 10/10 400 м
[Cb cap]
+11.6 +9.5 87 +11 +11 1010.4 1007.7 +12.9 0.0
09 17.07 штиль 0
{2}
10 км 10/10 720 м
[Cb cap]
+11.7 +9.3 85 +11 +11 1009.9 1007.2
12 17.07 Ю 3
{7}
2000 м слабая морось 10/10 300 м
[St]
+9.9 +9.2 95 +8 +8 1009.4 1006.7

 

Местоположение метеостанции Эгвекинот (Чукотка, Россия): широта 66.35 долгота -179.00 высота над уровнем моря 22 м.

В архиве по умолчанию представлена погода в Эгвекиноте за последнюю неделю. Архивные данные за месяц целиком и за предыдущие месяцы, начиная с января 2011 года, Вы можете получить, выбрав интересующий диапазон дат из раскрывающегося списка и нажав кнопку "Ввод!".


*Определитесь, кто Вы:
робот инопланетянин человек

Внимание! Время в таблицах - всемирное. Для получения местного времени необходимо прибавить поправку, которая в Эгвекиноте равна 12 ч.

Смотрите также архив погоды в соседних городах и на ближайших метеорологических станциях:

Погода на Мысе Ванкарем (Чукотка, Россия) (239 км)
Погода на Мысе Шмидта (Чукотка, Россия) (280 км)
Погода в Уэлене (Чукотка, Россия) (448 км)
Погода на Острове Врангеля (Чукотка, Россия) (517 км)

Пояснения к столбцам:

Ветер - указаны скорость ветра в м/с - средняя за 10 мин, порывы в срок и между сроками (в фигурных скобках) и направление, откуда дует ветер: С - северный, СВ - северо-восточный, В - восточный, ЮВ - юго-восточный, Ю - южный, ЮЗ - юго-западный, З - западный, СЗ - северо-западный.
Видимость - горизонтальная дальность видимости в метрах или километрах. При видимости от 1 до 10 км при отсутствии осадков обычно наблюдается дымка, при ухудшении видимости до 1 км и менее - туман. В сухую погоду видимость может ухудшаться дымом, пылью или мглою.
Явления - указаны атмосферные явления, наблюдавшиеся в срок или в последний час перед сроком; фигурными скобками обозначены явления, наблюдавшиеся между сроками (за 1-3 часа до срока); квадратными скобками обозначены град или гололедные отложения с указанием их диаметра в мм.
Облачность - указаны через наклонную черту общая и нижняя облачность в баллах и высота нижней границы облаков в метрах; квадратными скобками обозначены формы облаков: Ci - перистые, Cs - перисто-слоистые, Cc - перисто-кучевые, Ac - высококучевые, As - высокослоистые, Sc - слоисто-кучевые, Ns - слоисто-дождевые, Cu - кучевые, Cb - кучево-дождевые. Подробнее классификацию облаков см. в Атласе облаков (PDF).
T - Температура воздуха - температура, измеренная на высоте 2 м над землей.
Td - Температура точки росы - температура, при понижении до которой содержащийся в воздухе водяной пар достигнет насыщения.
f - Относительная влажность воздуха - влажноcть воздуха, измеренная на высоте 2 м над землей.
Te - Эффективная температура - температура, которую ощущает одетый по сезону человек в тени. Характеристика душности погоды. При расчете учитывается влияние влажности воздуха и скорости ветра на теплоощущения человека.
Tes - Эффективная температура на солнце - температура, которую ощущает человек, с поправкой на солнечный нагрев. Характеристика знойности погоды. Зависит от высоты солнца над горизонтом, облачности и скорости ветра. Ночью, в пасмурную погоду, а также при ветре 12 м/с и более поправка равна нулю.
P - Атмосферное давление - приведенное к уровню моря атмосферное давление.
Po - Атмосферное давление - измеренное на уровне метеостанции атмосферное давление.
Tmin - Минимальная температура - минимум температуры воздуха на высоте 2 м над землей.
Tmax - Максимальная температура - максимум температуры воздуха на высоте 2 м над землей.
R - Количество осадков - Количество выпавших осадков за период времени, мм. При наведении курсора мыши на число - период времени, за который выпало указанное количество осадков.
R24 - Количество осадков - Количество выпавших осадков за 24 часа, мм.
S - Снежный покров - Высота снежного покрова, см. При наведении курсора мыши на число - состояние снежного покрова и степень покрытия местности в баллах.